Kuiper-00191

operational
NORAD ID: 67143 Int'l Des: 2025-301 Owner: KUIP Country: US Constellation: kuiper
LEOCIRCULAR

Über Kuiper-00191

Beschreibung wird geladen...

Live-Position

3D-Globus wird geladen...

Nächste Überflüge

Höhenverlauf

Altitude vs Time

uPlot chart will show altitude changes over time

Zweizeiliger Elementsatz

1 67143U 25301L 26034.50002314 -.00932976 00000-0 -31886-1 0 9997
2 67143 51.8675 230.6401 0007944 269.8199 171.2019 15.32556616 4970
Epoch: 3. Feb. 2026 • Age: 6 hours

Aktueller Status

Höhe 479.6 km
Geschwindigkeit 7.63 km/s
Subsatellitenpunkt 45.99°N, 54.6°W
Startdatum 16. Dez. 2025
Alter 0.1 years
Typ internet

Technische Details

Klassifizierung Payload
Masse 490.00 kg
Trockenmasse 490.00 kg
Gesamtmasse 490.00 kg
Länge 1.80 m
Durchmesser 0.70 m
Spannweite 5.00 m
Form Box + 2 pan
Hersteller KUIP
Bus-Typ Kuiper
Phasenstatus In Orbit
Besitzer/Staat KUIP/US

Große Konstellationen

Loading constellations...